www.pogodaiklimat.ru

Погода и климат >> Архив погоды >> Алжир >> Релизан


ПОГОДА в Релизане

  • Прогноз погоды в Релизане
  • Монитор погоды в Релизане

АРХИВ ПОГОДЫ в Релизане

Время (UTC), дата Ветер
(напр.,м/с)
 
Видим.   Явления Облачность Т
(С)
Тd
(С)
f
(%)
Тe
(С)
Тes
(С)
Комфортность P
(гПа)
Po
(гПа)
Тmin
(С)
Tmax
(С)
R
(мм)
R24
(мм)
S
(см)
18 11.09 Ю 1 15 км 8/5 800 м
[Cb cap Ac cast]
+19.1 +14.0 72 +21 +21 комфорт 1017.9 1009.0 +21.5
06 12.09 штиль 0 10 км 5/5 800 м
[Cu Sc]
+13.7 +12.3 91 +13 +13 1020.5 1011.4 +13.7
09 12.09 штиль 0 12 км 4/4 800 м
[Cu Sc]
+18.4 +14.3 77 +19 +25 1022.5 1013.6
12 12.09 штиль 0 15 км 5/3 800 м
[Cu med, cong Ac cast]
+21.5 +14.6 65 +25 +36 комфорт 1020.9 1012.1
15 12.09 СВ 1 15 км 6/3 800 м
[Cu med, cong Ac cast]
+24.9 +15.0 54 +28 +32 жарко 1020.3 1011.6
18 12.09 С 1 15 км 8/5 800 м
[Cb cap Ac cast]
+22.7 +17.6 73 +28 +28 душно 1019.4 1010.6 +25.2
06 13.09 штиль 0 8000 м 5/5 800 м
[Cu med, cong]
+18.6 +17.3 92 +19 +19 1019.0 1010.1 +18.4 13
09 13.09 штиль 0 12 км 3/3 800 м
[Cu med, cong]
+21.5 +19.8 90 +27 +34 душно 1019.5 1010.7
12 13.09 штиль 0 12 км 3/3 800 м
[Cu med, cong]
+26.2 +20.4 70 +32 +47 очень
душно
1018.8 1010.1
15 13.09 ЮВ 3 12 км 3/0
[Ci sp]
+30.7 +22.4 61 +40 +46 очень
душно
1016.1 1007.6
18 13.09 штиль 0 10 км 4/0
[Ci sp]
+30.3 +21.8 60 +39 +39 очень
душно
1015.2 1006.7 +31.8
06 14.09 штиль 0 6000 м 3/3 800 м
[Cu med, cong]
+21.8 +20.9 95 +28 +28 душно 1016.8 1008.0 +21.6
09 14.09 штиль 0 7000 м 3/3 800 м
[Cu med, cong]
+25.4 +23.2 88 +34 +42 очень
душно
1017.4 1008.7
12 14.09 З 5 8000 м в посл. час гроза 8/8 700 м
[Cb cap]
+37.3 +18.5 33 +41 +43 опасность
перегрева
1014.2 1005.9
15 14.09 ЮВ 4 7000 м гроза без осадков {ливн. осадки} 9/9 700 м
[Cb cap]
+32.7 +21.4 51 +40 +41 очень
душно
1010.7 1002.3
18 14.09 В 4 7000 м в посл. час гроза {ливн. осадки} 6/6 700 м
[Cb cap]
+27.2 +22.7 76 +36 +36 очень
душно
1012.9 1004.3 +39.7 0.4
06 15.09 штиль 0 6000 м 4/4 600 м
[St Ci sp]
+21.3 +20.2 93 +26 +26 душно 1016.2 1007.4 +21.3 0.4
09 15.09 штиль 0 5000 м 4/4 800 м
[Cu med, cong]
+24.7 +23.4 92 +33 +39 очень
душно
1016.3 1007.6
12 15.09 штиль 0 8000 м 4/3 800 м
[Cu med, cong Cs]
+31.0 +22.6 61 +41 +54 опасность
перегрева
1014.6 1006.1
15 15.09 штиль 0 8000 м 5/3 800 м
[Cu med, cong Cs]
+29.7 +21.9 63 +38 +45 очень
душно
1014.5 1006.0
18 15.09 штиль 0 8000 м 6/3 800 м
[Cu med, cong Cs]
+27.3 +21.6 71 +35 +35 очень
душно
1015.4 1006.8 +32.0
06 16.09 штиль 0 5000 м 10/6 400 м
[Cu med, cong Ac cast]
+23.2 +21.2 89 +31 +31 очень
душно
1017.3 1008.5 +22.8
09 16.09 штиль 0 5000 м 10/6 400 м
[Cu med, cong Ac cast]
+24.8 +21.1 80 +31 +32 очень
душно
1019.0 1010.3
12 16.09 штиль 0 8000 м 6/6 800 м
[Cu med, cong]
+27.1 +22.1 74 +35 +43 очень
душно
1017.6 1009.0
15 16.09 штиль 0 8000 м 4/4 800 м
[Cu med, cong]
+31.4 +20.7 53 +38 +44 очень
душно
1015.4 1006.9
18 16.09 штиль 0 8000 м 3/3 800 м
[Cu med, cong]
+27.3 +20.1 65 +34 +34 очень
душно
1015.5 1006.9 +31.4
06 17.09 штиль 0 6000 м 3/3 800 м
[Cu med, cong]
+20.0 +18.9 93 +23 +23 комфорт 1016.7 1007.8 +20.0
09 17.09 штиль 0 7000 м 1/1 800 м
[Cu med, cong]
+23.8 +21.4 86 +30 +39 очень
душно
1017.0 1008.3
12 17.09 штиль 0 8000 м 4/0
[Ci sp]
+29.3 +21.5 63 +37 +56 опасность
солнечного
удара
1014.3 1005.7
15 17.09 штиль 0 8000 м гроза без осадков 10/8 700 м
[Cb cap Ci sp]
+31.2 +21.2 55 +39 +40 очень
душно
1012.0 1003.5
18 17.09 0 8000 м {гроза, ливн. осадки} 6/6 800 м
[Cu med, cong]
+28.2 +18.0 54 1011.8 1003.2 +32.2 0.2
06 18.09 штиль 0 6000 м 9/9 700 м
[Cb cap]
+22.5 +20.8 90 +29 +29 очень
душно
1014.3 1005.5 +22.5 0.2
09 18.09 0 7000 м 8/8 800 м
[Cu med, cong]
+24.0 +21.9 88 1015.5 1006.8
12 18.09 0 8000 м н/о +28.8 +21.4 64 1014.6 1006.0

 

Местоположение метеостанции Релизан (Алжир): широта 35.73 долгота 0.55 высота над уровнем моря 75 м.

В архиве по умолчанию представлена погода в Релизане за последнюю неделю. Архивные данные за месяц целиком и за предыдущие месяцы, начиная с января 2011 года, Вы можете получить, выбрав интересующий диапазон дат из раскрывающегося списка и нажав кнопку "Ввод!".


*Определитесь, кто Вы:
робот инопланетянин человек

Внимание! Время в таблицах - всемирное. Для получения местного времени необходимо прибавить поправку, которая равна 1 ч.

Смотрите также архив погоды в соседних городах и на ближайших метеорологических станциях:

Погода в Мостаганеме (Алжир) (42 км)
Погода в Грисе (Алжир) (67 км)
Погода в Арзеве (Алжир) (75 км)
Погода в Шлефе (Алжир) (89 км)
Погода в Тиарете (Алжир) (93 км)
Погода в Оран-Тафрауи (Алжир) (101 км)
Погода в Саиде (Алжир) (102 км)
Погода в Оран аэропорту (Алжир) (104 км)
Погода в Оране (Алжир) (108 км)
Погода в Тенесе (Алжир) (111 км)

Пояснения к столбцам:

Ветер - указаны скорость ветра в м/с - средняя за 10 мин, порывы в срок и между сроками (в фигурных скобках) и направление, откуда дует ветер: С - северный, СВ - северо-восточный, В - восточный, ЮВ - юго-восточный, Ю - южный, ЮЗ - юго-западный, З - западный, СЗ - северо-западный.
Видимость - горизонтальная дальность видимости в метрах или километрах. При видимости от 1 до 10 км при отсутствии осадков обычно наблюдается дымка, при ухудшении видимости до 1 км и менее - туман. В сухую погоду видимость может ухудшаться дымом, пылью или мглою.
Явления - указаны атмосферные явления, наблюдавшиеся в срок или в последний час перед сроком; фигурными скобками обозначены явления, наблюдавшиеся между сроками (за 1-3 часа до срока); квадратными скобками обозначены град или гололедные отложения с указанием их диаметра в мм.
Облачность - указаны через наклонную черту общая и нижняя облачность в баллах и высота нижней границы облаков в метрах; квадратными скобками обозначены формы облаков: Ci - перистые, Cs - перисто-слоистые, Cc - перисто-кучевые, Ac - высококучевые, As - высокослоистые, Sc - слоисто-кучевые, Ns - слоисто-дождевые, Cu - кучевые, Cb - кучево-дождевые. Подробнее классификацию облаков см. в Атласе облаков (PDF).
T - Температура воздуха - температура, измеренная на высоте 2 м над землей.
Td - Температура точки росы - температура, при понижении до которой содержащийся в воздухе водяной пар достигнет насыщения.
f - Относительная влажность воздуха - влажноcть воздуха, измеренная на высоте 2 м над землей.
Te - Эффективная температура - температура, которую ощущает одетый по сезону человек в тени. Характеристика душности погоды. При расчете учитывается влияние влажности воздуха и скорости ветра на теплоощущения человека.
Tes - Эффективная температура на солнце - температура, которую ощущает человек, с поправкой на солнечный нагрев. Характеристика знойности погоды. Зависит от высоты солнца над горизонтом, облачности и скорости ветра. Ночью, в пасмурную погоду, а также при ветре 12 м/с и более поправка равна нулю.
P - Атмосферное давление - приведенное к уровню моря атмосферное давление.
Po - Атмосферное давление - измеренное на уровне метеостанции атмосферное давление.
Tmin - Минимальная температура - минимум температуры воздуха на высоте 2 м над землей.
Tmax - Максимальная температура - максимум температуры воздуха на высоте 2 м над землей.
R - Количество осадков - Количество выпавших осадков за период времени, мм. При наведении курсора мыши на число - период времени, за который выпало указанное количество осадков.
R24 - Количество осадков - Количество выпавших осадков за 24 часа, мм.
S - Снежный покров - Высота снежного покрова, см. При наведении курсора мыши на число - состояние снежного покрова и степень покрытия местности в баллах.